Location: Mahannah Oil Field
(37.4664°N, 96.6003°W)
Time: 04:31:43
(UTC+00:00)

deb Explorer IX - Pass Details

Date: 24 June 2021
Orbit: 544 x 1093 km, 38.8° (Epoch: 02 August)

Event Time Altitude Azimuth Distance (km) Brightness Sun altitude
Exits shadow 08:46:27 13° 141° (SE) 1,846 ? -21.1°
Drops below altitude 10° 08:48:19 10° 117° (ESE) 2,003 ? -20.9°
Sets 08:51:38 0° 90° (E) 2,821 ? -20.5°
